ZIYUAN 1-02C (ZY 1-02C)

Last updated on Sat Jun 21 2025 00:02:28 GMT+0000 (Coordinated Universal Time)

1 38038U 11079A 25171.61877521 .00000325 00000+0 12244-3 0 9998 2 38038 98.4529 240.6672 0005463 316.9010 189.8358 14.37780336707240
UTC large
Height (km)
Speed (km/s)
/
Latitude / Longitude
Inclination (degrees)
Orbital Period (minutes)
Azimuth
Elevation
Range (km)
Doppler Factor

Next 0 passes for location: London (51.5072 / 0.1276)

Sorry there are no passes over London.